User: anonymous   Login
Location: Te Maire Creek
(41.1333°S, 175.9167°E)
Time: 14:22:24
(UTC+00:00)
Language:

SeaSat 1 - Orbit

View from above orbital plane
View from above orbital plane
View from above satellite
View from above satellite

Ground track
Ground track

The orbit data is extracted from the following two-line orbital elements,

1 10967U 78064A   24199.24212413  .00000716  00000-0  24395-3 0  9992
2 10967 107.9983 306.7533 0002624 276.5778  83.5068 14.45025113420041
Epoch (UTC): 17 July 2024 05:48:39
Eccentricity: 0.0002624
inclination: 107.9983°
perigee height: 740 km
apogee height: 744 km
right ascension of ascending node: 306.7533°
argument of perigee: 276.5778°
revolutions per day: 14.45025113
mean anomaly at epoch: 83.5068°
orbit number at epoch: 42004

The dashed part of the orbit path shows where the satellite is in the earth's shadow,  

DLR